| time (UTC) | temp F | wind direction | speed MPH | gust MPH | rain 1hr in | rain 24hr in | rain mn in | humidity % | barometer mb |
| 20260507195438 | 55 | 226 | 0.0 | 5.0 | 0.00 | 0.05 | 0.03 | 8 | 1013.4 |
| 20260507194938 | 55 | 274 | 2.0 | 5.0 | 0.00 | 0.05 | 0.03 | 8 | 1013.5 |
| 20260507194438 | 55 | 233 | 3.0 | 5.0 | 0.00 | 0.05 | 0.03 | 8 | 1013.4 |
| 20260507193938 | 55 | 148 | 2.0 | 6.0 | 0.00 | 0.05 | 0.03 | 8 | 1013.5 |
| 20260507193438 | 55 | 242 | 1.0 | 6.0 | 0.00 | 0.05 | 0.03 | 8 | 1013.6 |
| 20260507192938 | 55 | 239 | 0.0 | 3.0 | 0.00 | 0.05 | 0.03 | 8 | 1013.4 |
| 20260507192438 | 55 | 148 | 3.0 | 5.0 | 0.00 | 0.05 | 0.03 | 8 | 1013.3 |
| 20260507191938 | 55 | 253 | 1.0 | 3.0 | 0.00 | 0.05 | 0.03 | 8 | 1013.2 |
| 20260507191438 | 55 | 144 | 1.0 | 4.0 | 0.00 | 0.05 | 0.03 | 8 | 1013.6 |
| 20260507190938 | 55 | 210 | 2.0 | 3.0 | 0.00 | 0.05 | 0.03 | 8 | 1013.5 |
| 20260507190438 | 55 | 231 | 0.0 | 4.0 | 0.00 | 0.05 | 0.03 | 8 | 1013.5 |
| 20260507185938 | 55 | 241 | 1.0 | 3.0 | 0.00 | 0.06 | 0.03 | 8 | 1013.2 |
| 20260507185439 | 55 | 237 | 2.0 | 3.0 | 0.00 | 0.06 | 0.03 | 8 | 1013.3 |
| 20260507184937 | 54 | 252 | 1.0 | 3.0 | 0.00 | 0.06 | 0.03 | 8 | 1013.4 |
| 20260507184437 | 54 | 260 | 2.0 | 4.0 | 0.00 | 0.06 | 0.03 | 8 | 1013.4 |
| 20260507183937 | 54 | 272 | 0.0 | 2.0 | 0.00 | 0.06 | 0.03 | 8 | 1013.2 |
| 20260507183437 | 54 | 227 | 1.0 | 3.0 | 0.00 | 0.06 | 0.03 | 8 | 1013.1 |
| 20260507182937 | 54 | 276 | 0.0 | 3.0 | 0.00 | 0.06 | 0.03 | 8 | 1013.1 |
| 20260507182437 | 54 | 229 | 0.0 | 4.0 | 0.00 | 0.06 | 0.03 | 8 | 1013.1 |
| 20260507181937 | 55 | 221 | 1.0 | 1.0 | 0.00 | 0.06 | 0.03 | 8 | 1012.9 |
| 20260507181437 | 55 | 231 | 0.0 | 1.0 | 0.00 | 0.06 | 0.03 | 8 | 1012.8 |
| 20260507180937 | 55 | 223 | 0.0 | 1.0 | 0.00 | 0.06 | 0.03 | 8 | 1012.8 |
| 20260507180437 | 55 | 185 | 2.0 | 4.0 | 0.00 | 0.06 | 0.03 | 8 | 1012.8 |
| 20260507175937 | 55 | 183 | 1.0 | 4.0 | 0.00 | 0.06 | 0.03 | 8 | 1012.4 |
| 20260507175437 | 55 | 187 | 2.0 | 6.0 | 0.00 | 0.06 | 0.03 | 8 | 1012.4 |
| 20260507174937 | 55 | 163 | 2.0 | 3.0 | 0.00 | 0.06 | 0.03 | 8 | 1012.5 |
| 20260507174437 | 55 | 180 | 1.0 | 3.0 | 0.00 | 0.06 | 0.03 | 8 | 1012.3 |
| 20260507173937 | 55 | 166 | 2.0 | 3.0 | 0.00 | 0.06 | 0.03 | 8 | 1012.0 |
| 20260507173437 | 55 | 197 | 1.0 | 5.0 | 0.00 | 0.06 | 0.03 | 8 | 1012.1 |
| 20260507172937 | 55 | 201 | 3.0 | 5.0 | 0.00 | 0.06 | 0.03 | 8 | 1012.3 |
| 20260507172437 | 56 | 171 | 1.0 | 5.0 | 0.00 | 0.06 | 0.03 | 8 | 1012.2 |
| 20260507171937 | 56 | 165 | 2.0 | 6.0 | 0.00 | 0.07 | 0.03 | 8 | 1012.0 |
| 20260507171437 | 56 | 171 | 5.0 | 6.0 | 0.00 | 0.07 | 0.03 | 8 | 1012.1 |
| 20260507170937 | 57 | 136 | 4.0 | 6.0 | 0.00 | 0.07 | 0.03 | 8 | 1011.9 |
| 20260507170437 | 56 | 210 | 4.0 | 8.0 | 0.00 | 0.07 | 0.03 | 8 | 1012.0 |
| 20260507165937 | 56 | 135 | 3.0 | 6.0 | 0.00 | 0.06 | 0.03 | 8 | 1011.9 |
| 20260507165437 | 56 | 145 | 3.0 | 5.0 | 0.00 | 0.06 | 0.03 | 8 | 1012.0 |
| 20260507164937 | 56 | 160 | 2.0 | 4.0 | 0.00 | 0.06 | 0.03 | 8 | 1012.0 |
| 20260507164437 | 57 | 217 | 2.0 | 4.0 | 0.00 | 0.06 | 0.03 | 8 | 1012.1 |
| 20260507163937 | 57 | 216 | 0.0 | 2.0 | 0.00 | 0.06 | 0.03 | 8 | 1012.3 |
| 20260507163437 | 57 | 197 | 0.0 | 2.0 | 0.00 | 0.06 | 0.03 | 8 | 1012.0 |
| 20260507162937 | 57 | 245 | 0.0 | 2.0 | 0.00 | 0.06 | 0.03 | 8 | 1012.1 |
| 20260507162437 | 57 | 194 | 1.0 | 2.0 | 0.00 | 0.06 | 0.03 | 8 | 1012.3 |
| 20260507161937 | 57 | 257 | 1.0 | 3.0 | 0.00 | 0.06 | 0.03 | 8 | 1012.0 |
| 20260507161436 | 57 | 227 | 1.0 | 3.0 | 0.00 | 0.06 | 0.03 | 8 | 1012.2 |
| 20260507160937 | 57 | 250 | 0.0 | 4.0 | 0.00 | 0.06 | 0.03 | 8 | 1012.0 |
| 20260507160436 | 57 | 249 | 1.0 | 2.0 | 0.00 | 0.06 | 0.03 | 8 | 1011.9 |
| 20260507155936 | 57 | 252 | 0.0 | 3.0 | 0.00 | 0.06 | 0.03 | 8 | 1011.9 |
| 20260507155436 | 57 | 241 | 1.0 | 2.0 | 0.00 | 0.06 | 0.03 | 8 | 1011.7 |
| 20260507154936 | 57 | 236 | 0.0 | 2.0 | 0.00 | 0.06 | 0.03 | 8 | 1011.9 |
| 20260507154436 | 57 | 248 | 0.0 | 3.0 | 0.00 | 0.06 | 0.03 | 8 | 1011.8 |
| 20260507153936 | 57 | 249 | 1.0 | 4.0 | 0.00 | 0.06 | 0.03 | 8 | 1012.0 |
| 20260507153436 | 57 | 207 | 1.0 | 3.0 | 0.00 | 0.07 | 0.03 | 8 | 1012.1 |
| 20260507152936 | 57 | 256 | 1.0 | 5.0 | 0.01 | 0.07 | 0.03 | 8 | 1012.2 |
| 20260507152437 | 57 | 224 | 1.0 | 3.0 | 0.02 | 0.08 | 0.03 | 8 | 1012.2 |
| 20260507151936 | 56 | 245 | 1.0 | 6.0 | 0.02 | 0.08 | 0.03 | 8 | 1012.1 |
| 20260507151436 | 56 | 223 | 2.0 | 3.0 | 0.02 | 0.09 | 0.03 | 8 | 1012.3 |
| 20260507150936 | 56 | 231 | 2.0 | 5.0 | 0.02 | 0.09 | 0.03 | 8 | 1012.2 |
| 20260507150436 | 56 | 267 | 1.0 | 3.0 | 0.02 | 0.09 | 0.03 | 8 | 1012.3 |
| 20260507145936 | 56 | 265 | 1.0 | 3.0 | 0.03 | 0.06 | 0.03 | 8 | 1012.1 |
| 20260507145436 | 56 | 251 | 2.0 | 5.0 | 0.03 | 0.06 | 0.03 | 8 | 1012.3 |
| 20260507144936 | 56 | 232 | 2.0 | 2.0 | 0.03 | 0.06 | 0.03 | 8 | 1012.5 |
| 20260507144436 | 57 | 253 | 1.0 | 2.0 | 0.02 | 0.06 | 0.03 | 8 | 1012.2 |
| 20260507143936 | 57 | 280 | 1.0 | 4.0 | 0.02 | 0.06 | 0.03 | 8 | 1012.2 |
| 20260507143436 | 57 | 218 | 1.0 | 3.0 | 0.02 | 0.05 | 0.02 | 7 | 1012.1 |
| 20260507142936 | 57 | 205 | 1.0 | 5.0 | 0.01 | 0.04 | 0.02 | 7 | 1012.0 |
| 20260507142436 | 58 | 267 | 1.0 | 5.0 | 0.01 | 0.04 | 0.01 | 7 | 1012.0 |
| 20260507141936 | 58 | 175 | 1.0 | 4.0 | 0.00 | 0.04 | 0.01 | 7 | 1011.9 |
| 20260507141436 | 58 | 262 | 1.0 | 8.0 | 0.00 | 0.03 | 0.00 | 7 | 1012.0 |
| 20260507140936 | 59 | 259 | 2.0 | 5.0 | 0.00 | 0.03 | 0.00 | 7 | 1011.9 |
| 20260507140436 | 59 | 264 | 1.0 | 5.0 | 0.00 | 0.03 | 0.00 | 7 | 1012.0 |
| 20260507135936 | 60 | 234 | 0.0 | 3.0 | 0.00 | 0.03 | 0.00 | 7 | 1012.2 |
| 20260507135436 | 60 | 244 | 4.0 | 6.0 | 0.00 | 0.03 | 0.00 | 7 | 1011.9 |
| 20260507134936 | 61 | 248 | 5.0 | 6.0 | 0.00 | 0.03 | 0.00 | 6 | 1011.8 |
| 20260507134436 | 61 | 112 | 2.0 | 4.0 | 0.00 | 0.03 | 0.00 | 6 | 1012.0 |
| 20260507133936 | 62 | 260 | 3.0 | 6.0 | 0.00 | 0.03 | 0.00 | 6 | 1011.7 |
| 20260507133436 | 62 | 222 | 2.0 | 5.0 | 0.00 | 0.03 | 0.00 | 6 | 1011.6 |
| 20260507132935 | 62 | 290 | 2.0 | 4.0 | 0.00 | 0.03 | 0.00 | 6 | 1011.6 |
| 20260507132435 | 62 | 220 | 1.0 | 6.0 | 0.00 | 0.03 | 0.00 | 6 | 1011.3 |
| 20260507131935 | 63 | 203 | 3.0 | 6.0 | 0.00 | 0.03 | 0.00 | 6 | 1011.3 |
| 20260507131435 | 63 | 245 | 1.0 | 12.0 | 0.00 | 0.03 | 0.00 | 6 | 1011.5 |
| 20260507130935 | 63 | 230 | 2.0 | 9.0 | 0.00 | 0.03 | 0.00 | 6 | 1011.5 |
| 20260507130435 | 63 | 334 | 2.0 | 5.0 | 0.00 | 0.03 | 0.00 | 6 | 1011.4 |
| 20260507125935 | 63 | 236 | 2.0 | 6.0 | 0.00 | 0.03 | 0.00 | 6 | 1011.4 |
| 20260507125435 | 63 | 229 | 2.0 | 6.0 | 0.00 | 0.03 | 0.00 | 6 | 1011.4 |
| 20260507124935 | 63 | 295 | 5.0 | 9.0 | 0.00 | 0.03 | 0.00 | 6 | 1011.7 |
| 20260507124435 | 63 | 266 | 0.0 | 1.0 | 0.00 | 0.03 | 0.00 | 6 | 1011.4 |
| 20260507123935 | 63 | 265 | 2.0 | 4.0 | 0.00 | 0.03 | 0.00 | 6 | 1011.9 |
| 20260507123435 | 63 | 260 | 3.0 | 4.0 | 0.00 | 0.03 | 0.00 | 6 | 1011.4 |
| 20260507122935 | 63 | 220 | 0.0 | 2.0 | 0.00 | 0.03 | 0.00 | 6 | 1011.4 |
| 20260507122435 | 63 | 287 | 2.0 | 5.0 | 0.00 | 0.03 | 0.00 | 6 | 1011.5 |
| 20260507121935 | 63 | 204 | 0.0 | 4.0 | 0.00 | 0.03 | 0.00 | 6 | 1011.3 |
| 20260507121435 | 63 | 265 | 3.0 | 5.0 | 0.00 | 0.03 | 0.00 | 6 | 1011.4 |
| 20260507120935 | 62 | 299 | 1.0 | 6.0 | 0.00 | 0.03 | 0.00 | 6 | 1011.6 |
| 20260507120435 | 63 | 320 | 0.0 | 4.0 | 0.00 | 0.03 | 0.00 | 6 | 1011.6 |
| 20260507115935 | 63 | 281 | 1.0 | 3.0 | 0.00 | 0.03 | 0.00 | 6 | 1011.5 |
| 20260507115435 | 63 | 252 | 2.0 | 3.0 | 0.00 | 0.03 | 0.00 | 6 | 1011.5 |
| 20260507114935 | 64 | 224 | 0.0 | 3.0 | 0.00 | 0.03 | 0.00 | 6 | 1011.6 |
| 20260507114435 | 64 | 206 | 2.0 | 4.0 | 0.00 | 0.03 | 0.00 | 6 | 1011.5 |
| 20260507113935 | 64 | 286 | 5.0 | 6.0 | 0.00 | 0.03 | 0.00 | 6 | 1011.4 |
| 20260507113435 | 64 | 256 | 1.0 | 4.0 | 0.00 | 0.03 | 0.00 | 6 | 1011.2 |
| 20260507112935 | 63 | 271 | 1.0 | 4.0 | 0.00 | 0.03 | 0.00 | 6 | 1011.6 |
| 20260507112435 | 63 | 226 | 1.0 | 3.0 | 0.00 | 0.03 | 0.00 | 6 | 1011.5 |
| 20260507111935 | 64 | 248 | 2.0 | 2.0 | 0.00 | 0.03 | 0.00 | 6 | 1011.4 |
| 20260507111435 | 64 | 304 | 4.0 | 9.0 | 0.00 | 0.03 | 0.00 | 6 | 1011.4 |
| 20260507110934 | 64 | 249 | 0.0 | 10.0 | 0.00 | 0.03 | 0.00 | 6 | 1011.3 |
| 20260507110434 | 65 | 239 | 2.0 | 4.0 | 0.00 | 0.03 | 0.00 | 6 | 1011.1 |
| 20260507105934 | 65 | 236 | 3.0 | 5.0 | 0.00 | 0.03 | 0.00 | 6 | 1011.1 |
| 20260507105437 | 65 | 249 | 1.0 | 4.0 | 0.00 | 0.03 | 0.00 | 6 | 1011.6 |
| 20260507104934 | 65 | 279 | 2.0 | 4.0 | 0.00 | 0.03 | 0.00 | 6 | 1011.2 |
| 20260507104434 | 65 | 258 | 2.0 | 8.0 | 0.00 | 0.03 | 0.00 | 6 | 1011.4 |
| 20260507103934 | 65 | 232 | 4.0 | 8.0 | 0.00 | 0.03 | 0.00 | 6 | 1011.1 |
| 20260507103434 | 65 | 169 | 2.0 | 4.0 | 0.00 | 0.03 | 0.00 | 6 | 1011.3 |
| 20260507102934 | 65 | 203 | 2.0 | 5.0 | 0.00 | 0.03 | 0.00 | 6 | 1011.6 |
| 20260507102434 | 65 | 197 | 5.0 | 10.0 | 0.00 | 0.03 | 0.00 | 6 | 1011.4 |
| 20260507101934 | 65 | 258 | 2.0 | 10.0 | 0.00 | 0.03 | 0.00 | 6 | 1011.4 |
| 20260507101434 | 65 | 154 | 4.0 | 8.0 | 0.00 | 0.03 | 0.00 | 6 | 1011.4 |
| 20260507100934 | 66 | 111 | 1.0 | 3.0 | 0.00 | 0.03 | 0.00 | 6 | 1011.4 |
| 20260507100434 | 66 | 223 | 2.0 | 6.0 | 0.00 | 0.03 | 0.00 | 6 | 1011.1 |
| 20260507095934 | 65 | 158 | 8.0 | 12.0 | 0.00 | 0.03 | 0.00 | 6 | 1011.6 |
| 20260507095434 | 64 | 160 | 2.0 | 3.0 | 0.00 | 0.03 | 0.00 | 6 | 1011.6 |
| 20260507094934 | 64 | 255 | 4.0 | 6.0 | 0.00 | 0.03 | 0.00 | 6 | 1011.6 |
| 20260507094434 | 63 | 184 | 4.0 | 5.0 | 0.00 | 0.03 | 0.00 | 6 | 1011.4 |
| 20260507093934 | 63 | 242 | 5.0 | 8.0 | 0.00 | 0.03 | 0.00 | 6 | 1011.5 |
| 20260507093434 | 63 | 187 | 1.0 | 5.0 | 0.00 | 0.03 | 0.00 | 6 | 1011.3 |
| 20260507092934 | 63 | 209 | 0.0 | 5.0 | 0.00 | 0.03 | 0.00 | 6 | 1011.4 |
| 20260507092434 | 63 | 239 | 1.0 | 4.0 | 0.00 | 0.03 | 0.00 | 6 | 1011.4 |
| 20260507091934 | 62 | 165 | 2.0 | 4.0 | 0.00 | 0.03 | 0.00 | 6 | 1011.6 |
| 20260507091434 | 62 | 292 | 2.0 | 8.0 | 0.00 | 0.03 | 0.00 | 6 | 1011.3 |
| 20260507090934 | 62 | 164 | 3.0 | 10.0 | 0.00 | 0.03 | 0.00 | 7 | 1011.3 |
| 20260507090434 | 62 | 236 | 3.0 | 4.0 | 0.00 | 0.03 | 0.00 | 7 | 1011.4 |
| 20260507085934 | 61 | 264 | 2.0 | 6.0 | 0.00 | 0.03 | 0.00 | 7 | 1011.7 |
| 20260507085434 | 61 | 170 | 7.0 | 9.0 | 0.00 | 0.03 | 0.00 | 7 | 1011.5 |
| 20260507084934 | 61 | 354 | 4.0 | 6.0 | 0.00 | 0.03 | 0.00 | 7 | 1011.4 |
| 20260507084434 | 61 | 283 | 6.0 | 11.0 | 0.00 | 0.03 | 0.00 | 7 | 1011.4 |
| 20260507083934 | 60 | 237 | 1.0 | 5.0 | 0.00 | 0.03 | 0.00 | 7 | 1011.5 |
| 20260507083433 | 60 | 169 | 6.0 | 9.0 | 0.00 | 0.03 | 0.00 | 7 | 1011.2 |
| 20260507082933 | 59 | 234 | 2.0 | 8.0 | 0.00 | 0.03 | 0.00 | 7 | 1011.5 |
| 20260507082433 | 59 | 279 | 3.0 | 4.0 | 0.00 | 0.03 | 0.00 | 7 | 1011.7 |
| 20260507081933 | 59 | 259 | 3.0 | 6.0 | 0.00 | 0.03 | 0.00 | 7 | 1011.5 |
| 20260507081433 | 59 | 280 | 4.0 | 10.0 | 0.00 | 0.03 | 0.00 | 7 | 1011.3 |
| 20260507080933 | 59 | 267 | 0.0 | 4.0 | 0.00 | 0.03 | 0.00 | 7 | 1011.3 |
| 20260507080433 | 59 | 248 | 0.0 | 3.0 | 0.00 | 0.03 | 0.00 | 7 | 1011.2 |
| 20260507075933 | 59 | 266 | 2.0 | 4.0 | 0.00 | 0.03 | 0.00 | 7 | 1011.1 |
| 20260507075433 | 59 | 277 | 2.0 | 4.0 | 0.00 | 0.03 | 0.00 | 7 | 1011.1 |
| 20260507074933 | 59 | 271 | 3.0 | 5.0 | 0.00 | 0.03 | 0.00 | 7 | 1011.1 |
| 20260507074433 | 59 | 267 | 0.0 | 2.0 | 0.00 | 0.03 | 0.00 | 7 | 1011.2 |
| 20260507073933 | 59 | 262 | 0.0 | 4.0 | 0.00 | 0.03 | 0.00 | 7 | 1011.3 |
| 20260507073433 | 59 | 304 | 4.0 | 6.0 | 0.00 | 0.03 | 0.00 | 7 | 1011.0 |
| 20260507072933 | 59 | 254 | 2.0 | 6.0 | 0.00 | 0.03 | 0.00 | 7 | 1011.1 |
| 20260507072433 | 59 | 260 | 4.0 | 8.0 | 0.00 | 0.03 | 0.00 | 7 | 1011.0 |
| 20260507071933 | 59 | 235 | 2.0 | 5.0 | 0.00 | 0.03 | 0.00 | 7 | 1010.9 |
| 20260507071433 | 59 | 221 | 2.0 | 6.0 | 0.00 | 0.03 | 0.00 | 7 | 1010.9 |
| 20260507070933 | 59 | 257 | 4.0 | 8.0 | 0.00 | 0.03 | 0.00 | 7 | 1011.0 |
| 20260507070433 | 59 | 236 | 4.0 | 6.0 | 0.00 | 0.03 | 0.00 | 7 | 1010.7 |
| 20260507065933 | 58 | 241 | 4.0 | 9.0 | 0.00 | 0.03 | 0.00 | 7 | 1010.9 |
| 20260507065433 | 58 | 242 | 5.0 | 10.0 | 0.00 | 0.03 | 0.00 | 7 | 1010.9 |
| 20260507064933 | 58 | 197 | 3.0 | 12.0 | 0.00 | 0.03 | 0.00 | 7 | 1010.9 |
| 20260507064433 | 58 | 327 | 5.0 | 6.0 | 0.00 | 0.03 | 0.00 | 7 | 1010.7 |
| 20260507063933 | 58 | 298 | 2.0 | 4.0 | 0.00 | 0.03 | 0.00 | 7 | 1010.9 |
| 20260507063433 | 57 | 280 | 4.0 | 5.0 | 0.00 | 0.03 | 0.00 | 7 | 1010.9 |
| 20260507062933 | 57 | 256 | 4.0 | 4.0 | 0.00 | 0.03 | 0.00 | 7 | 1010.8 |
| 20260507062433 | 57 | 206 | 2.0 | 3.0 | 0.00 | 0.03 | 0.00 | 7 | 1010.9 |
| 20260507061933 | 57 | 239 | 2.0 | 5.0 | 0.00 | 0.03 | 0.00 | 7 | 1010.8 |
| 20260507061433 | 57 | 239 | 3.0 | 4.0 | 0.00 | 0.03 | 0.00 | 7 | 1011.0 |
| 20260507060933 | 57 | 216 | 2.0 | 4.0 | 0.00 | 0.03 | 0.00 | 7 | 1010.7 |
| 20260507060433 | 56 | 283 | 2.0 | 5.0 | 0.00 | 0.03 | 0.00 | 7 | 1010.7 |
| 20260507055932 | 56 | 273 | 2.0 | 4.0 | 0.00 | 0.03 | 0.00 | 7 | 1010.7 |
| 20260507055432 | 56 | 221 | 0.0 | 4.0 | 0.00 | 0.03 | 0.00 | 7 | 1010.7 |
| 20260507054932 | 56 | 265 | 0.0 | 3.0 | 0.00 | 0.03 | 0.00 | 7 | 1010.7 |
| 20260507054432 | 56 | 156 | 2.0 | 4.0 | 0.00 | 0.03 | 0.00 | 7 | 1010.7 |
| 20260507053932 | 56 | 244 | 1.0 | 3.0 | 0.00 | 0.03 | 0.00 | 7 | 1010.5 |
| 20260507053433 | 56 | 193 | 1.0 | 3.0 | 0.00 | 0.03 | 0.00 | 7 | 1010.7 |
| 20260507052932 | 56 | 206 | 1.0 | 6.0 | 0.00 | 0.03 | 0.00 | 7 | 1010.5 |
| 20260507052432 | 56 | 133 | 2.0 | 5.0 | 0.00 | 0.03 | 0.00 | 7 | 1010.4 |
| 20260507051932 | 56 | 257 | 2.0 | 6.0 | 0.00 | 0.03 | 0.00 | 7 | 1010.4 |
| 20260507051432 | 56 | 266 | 2.0 | 8.0 | 0.00 | 0.03 | 0.00 | 7 | 1010.4 |
| 20260507050432 | 56 | 242 | 4.0 | 5.0 | 0.00 | 0.03 | 0.00 | 7 | 1010.1 |
| 20260507045932 | 56 | 260 | 2.0 | 8.0 | 0.00 | 0.03 | 0.00 | 7 | 1010.3 |
| 20260507045432 | 56 | 211 | 1.0 | 5.0 | 0.00 | 0.03 | 0.00 | 7 | 1010.3 |
| 20260507044932 | 56 | 212 | 4.0 | 5.0 | 0.00 | 0.03 | 0.00 | 7 | 1010.2 |
| 20260507043932 | 55 | 261 | 2.0 | 6.0 | 0.00 | 0.03 | 0.00 | 7 | 1010.0 |
| 20260507043432 | 56 | 261 | 2.0 | 10.0 | 0.00 | 0.03 | 0.00 | 7 | 1009.6 |
| 20260507042932 | 56 | 260 | 2.0 | 8.0 | 0.00 | 0.03 | 0.00 | 7 | 1009.8 |
| 20260507042432 | 56 | 236 | 4.0 | 12.0 | 0.00 | 0.03 | 0.00 | 7 | 1009.6 |
| 20260507041932 | 56 | 226 | 5.0 | 10.0 | 0.00 | 0.03 | 0.00 | 7 | 1009.5 |
| 20260507041432 | 56 | 227 | 5.0 | 8.0 | 0.00 | 0.03 | 0.00 | 7 | 1009.4 |
| 20260507040932 | 55 | 236 | 2.0 | 14.0 | 0.00 | 0.03 | 0.00 | 8 | 1009.4 |
| 20260507040432 | 55 | 248 | 5.0 | 10.0 | 0.00 | 0.03 | 0.00 | 8 | 1009.5 |
| 20260507035932 | 55 | 257 | 8.0 | 14.0 | 0.00 | 0.03 | 0.00 | 8 | 1009.3 |
| 20260507035432 | 55 | 232 | 6.0 | 9.0 | 0.00 | 0.03 | 0.00 | 8 | 1009.2 |
| 20260507034932 | 55 | 211 | 5.0 | 14.0 | 0.00 | 0.03 | 0.00 | 8 | 1009.2 |
| 20260507034431 | 55 | 230 | 5.0 | 9.0 | 0.00 | 0.03 | 0.00 | 8 | 1009.4 |
| 20260507033931 | 55 | 294 | 4.0 | 9.0 | 0.00 | 0.03 | 0.00 | 8 | 1009.4 |
| 20260507033431 | 55 | 264 | 7.0 | 11.0 | 0.00 | 0.03 | 0.00 | 8 | 1009.3 |
| 20260507032931 | 55 | 232 | 4.0 | 9.0 | 0.00 | 0.03 | 0.00 | 8 | 1009.3 |
| 20260507032431 | 56 | 243 | 2.0 | 10.0 | 0.00 | 0.03 | 0.00 | 8 | 1009.3 |
| 20260507031931 | 56 | 226 | 8.0 | 14.0 | 0.00 | 0.03 | 0.00 | 7 | 1009.5 |
| 20260507031431 | 56 | 250 | 6.0 | 11.0 | 0.00 | 0.03 | 0.00 | 7 | 1009.3 |
| 20260507030931 | 56 | 201 | 4.0 | 11.0 | 0.00 | 0.03 | 0.00 | 7 | 1009.1 |
| 20260507030431 | 56 | 312 | 5.0 | 10.0 | 0.00 | 0.03 | 0.00 | 7 | 1009.3 |
| 20260507025931 | 56 | 253 | 4.0 | 13.0 | 0.00 | 0.03 | 0.00 | 7 | 1009.3 |
| 20260507025431 | 56 | 255 | 4.0 | 11.0 | 0.00 | 0.03 | 0.00 | 7 | 1009.3 |
| 20260507024931 | 56 | 215 | 3.0 | 12.0 | 0.00 | 0.03 | 0.00 | 7 | 1009.1 |
| 20260507024431 | 57 | 307 | 6.0 | 10.0 | 0.00 | 0.03 | 0.00 | 7 | 1009.1 |
| 20260507023931 | 57 | 238 | 6.0 | 13.0 | 0.00 | 0.03 | 0.00 | 7 | 1009.3 |
| 20260507023431 | 57 | 254 | 4.0 | 12.0 | 0.00 | 0.03 | 0.00 | 7 | 1009.1 |
| 20260507022931 | 57 | 326 | 5.0 | 12.0 | 0.00 | 0.03 | 0.00 | 7 | 1009.1 |
| 20260507022431 | 57 | 189 | 5.0 | 12.0 | 0.00 | 0.03 | 0.00 | 7 | 1009.1 |
| 20260507021931 | 57 | 222 | 5.0 | 12.0 | 0.00 | 0.03 | 0.00 | 7 | 1009.0 |
| 20260507021431 | 58 | 283 | 3.0 | 12.0 | 0.00 | 0.03 | 0.00 | 7 | 1008.8 |
| 20260507020931 | 58 | 223 | 5.0 | 12.0 | 0.00 | 0.03 | 0.00 | 7 | 1009.1 |
| 20260507020431 | 58 | 264 | 7.0 | 12.0 | 0.00 | 0.03 | 0.00 | 7 | 1009.3 |
| 20260507015931 | 58 | 288 | 6.0 | 10.0 | 0.00 | 0.03 | 0.00 | 7 | 1008.8 |
| 20260507015431 | 58 | 290 | 4.0 | 14.0 | 0.00 | 0.03 | 0.00 | 7 | 1009.1 |
| 20260507014931 | 58 | 249 | 4.0 | 11.0 | 0.00 | 0.03 | 0.00 | 7 | 1009.0 |
| 20260507014431 | 57 | 251 | 4.0 | 10.0 | 0.00 | 0.03 | 0.00 | 7 | 1008.9 |
| 20260507013931 | 57 | 302 | 5.0 | 10.0 | 0.00 | 0.03 | 0.00 | 7 | 1009.2 |
| 20260507013431 | 57 | 259 | 5.0 | 13.0 | 0.00 | 0.03 | 0.00 | 7 | 1009.1 |
| 20260507012931 | 57 | 244 | 5.0 | 12.0 | 0.00 | 0.03 | 0.00 | 7 | 1009.3 |
| 20260507012431 | 58 | 308 | 5.0 | 11.0 | 0.00 | 0.03 | 0.00 | 7 | 1009.3 |
| 20260507011931 | 58 | 134 | 3.0 | 12.0 | 0.00 | 0.03 | 0.00 | 7 | 1009.2 |
| 20260507011431 | 58 | 239 | 8.0 | 11.0 | 0.00 | 0.03 | 0.00 | 7 | 1009.4 |
| 20260507010931 | 58 | 235 | 8.0 | 11.0 | 0.00 | 0.03 | 0.00 | 7 | 1009.1 |
| 20260507010431 | 58 | 273 | 4.0 | 12.0 | 0.00 | 0.03 | 0.00 | 7 | 1009.1 |
| 20260507005930 | 58 | 263 | 3.0 | 8.0 | 0.00 | 0.03 | 0.00 | 7 | 1009.2 |
| 20260507005430 | 58 | 279 | 4.0 | 11.0 | 0.00 | 0.03 | 0.00 | 7 | 1009.1 |
| 20260507004930 | 58 | 238 | 4.0 | 8.0 | 0.00 | 0.03 | 0.00 | 7 | 1009.2 |
| 20260507004431 | 58 | 247 | 3.0 | 11.0 | 0.00 | 0.03 | 0.00 | 7 | 1009.1 |
| 20260507003930 | 58 | 284 | 3.0 | 8.0 | 0.00 | 0.03 | 0.00 | 7 | 1009.3 |
| 20260507003430 | 58 | 243 | 2.0 | 10.0 | 0.00 | 0.03 | 0.00 | 7 | 1009.3 |
| 20260507002930 | 58 | 273 | 4.0 | 15.0 | 0.00 | 0.03 | 0.00 | 7 | 1009.4 |
| 20260507002430 | 58 | 277 | 1.0 | 9.0 | 0.00 | 0.03 | 0.00 | 7 | 1009.3 |
| 20260507001930 | 58 | 259 | 2.0 | 8.0 | 0.00 | 0.03 | 0.00 | 7 | 1009.5 |
| 20260507001430 | 59 | 223 | 9.0 | 12.0 | 0.00 | 0.03 | 0.00 | 7 | 1009.5 |
| 20260507000930 | 59 | 276 | 2.0 | 13.0 | 0.00 | 0.03 | 0.00 | 7 | 1009.5 |
| 20260507000430 | 59 | 253 | 2.0 | 9.0 | 0.00 | 0.03 | 0.00 | 7 | 1009.7 |
| 20260506235930 | 58 | 287 | 4.0 | 9.0 | 0.00 | 0.03 | 0.00 | 7 | 1009.6 |
| 20260506235430 | 58 | 188 | 6.0 | 10.0 | 0.00 | 0.03 | 0.00 | 7 | 1009.9 |
| 20260506234930 | 58 | 236 | 2.0 | 4.0 | 0.00 | 0.03 | 0.00 | 7 | 1009.7 |
| 20260506234430 | 58 | 245 | 3.0 | 11.0 | 0.00 | 0.03 | 0.00 | 7 | 1009.8 |
| 20260506233930 | 58 | 209 | 5.0 | 8.0 | 0.00 | 0.03 | 0.00 | 7 | 1009.7 |
| 20260506233430 | 58 | 269 | 4.0 | 5.0 | 0.00 | 0.03 | 0.00 | 7 | 1009.8 |
| 20260506232930 | 58 | 246 | 1.0 | 8.0 | 0.00 | 0.03 | 0.00 | 8 | 1010.0 |
| 20260506232430 | 57 | 182 | 1.0 | 8.0 | 0.00 | 0.03 | 0.00 | 8 | 1009.8 |
| 20260506231930 | 57 | 254 | 6.0 | 11.0 | 0.00 | 0.03 | 0.00 | 8 | 1010.3 |
| 20260506231430 | 57 | 251 | 2.0 | 11.0 | 0.00 | 0.03 | 0.00 | 8 | 1010.0 |
| 20260506230930 | 57 | 286 | 4.0 | 11.0 | 0.00 | 0.03 | 0.00 | 8 | 1010.1 |
| 20260506230430 | 57 | 203 | 7.0 | 15.0 | 0.00 | 0.03 | 0.00 | 8 | 1010.4 |
| 20260506225930 | 57 | 210 | 5.0 | 12.0 | 0.00 | 0.03 | 0.00 | 8 | 1010.1 |
| 20260506225430 | 58 | 175 | 6.0 | 10.0 | 0.00 | 0.02 | 0.00 | 7 | 1009.9 |
| 20260506224930 | 58 | 175 | 8.0 | 18.0 | 0.00 | 0.02 | 0.00 | 7 | 1009.9 |
| 20260506224430 | 59 | 187 | 6.0 | 13.0 | 0.00 | 0.02 | 0.00 | 7 | 1010.0 |
| 20260506223930 | 59 | 272 | 2.0 | 12.0 | 0.00 | 0.02 | 0.00 | 7 | 1009.9 |
| 20260506223430 | 60 | 142 | 2.0 | 13.0 | 0.00 | 0.02 | 0.00 | 7 | 1009.7 |
| 20260506222930 | 60 | 199 | 6.0 | 11.0 | 0.00 | 0.02 | 0.00 | 7 | 1009.4 |
| 20260506222429 | 60 | 11 | 3.0 | 12.0 | 0.00 | 0.02 | 0.00 | 7 | 1009.2 |
| 20260506221929 | 60 | 231 | 3.0 | 12.0 | 0.00 | 0.02 | 0.00 | 7 | 1008.8 |
| 20260506221429 | 60 | 244 | 5.0 | 12.0 | 0.00 | 0.02 | 0.00 | 7 | 1008.8 |
| 20260506220929 | 60 | 236 | 4.0 | 15.0 | 0.00 | 0.02 | 0.00 | 7 | 1008.9 |
| 20260506220429 | 60 | 153 | 3.0 | 6.0 | 0.00 | 0.02 | 0.00 | 7 | 1009.2 |
| 20260506215929 | 60 | 279 | 1.0 | 10.0 | 0.00 | 0.02 | 0.02 | 7 | 1009.0 |
| 20260506215429 | 60 | 240 | 3.0 | 8.0 | 0.00 | 0.02 | 0.02 | 7 | 1009.0 |
| 20260506214929 | 60 | 259 | 4.0 | 6.0 | 0.00 | 0.02 | 0.02 | 7 | 1008.8 |
| 20260506214429 | 60 | 271 | 4.0 | 6.0 | 0.00 | 0.02 | 0.02 | 7 | 1008.7 |
| 20260506213929 | 60 | 251 | 2.0 | 10.0 | 0.00 | 0.02 | 0.02 | 7 | 1008.7 |
| 20260506213429 | 61 | 247 | 6.0 | 11.0 | 0.00 | 0.02 | 0.02 | 7 | 1008.8 |
| 20260506212929 | 61 | 231 | 5.0 | 11.0 | 0.00 | 0.02 | 0.02 | 7 | 1008.8 |
| 20260506212429 | 61 | 245 | 6.0 | 10.0 | 0.00 | 0.02 | 0.02 | 7 | 1009.0 |
| 20260506211929 | 61 | 231 | 5.0 | 8.0 | 0.00 | 0.02 | 0.02 | 7 | 1008.7 |
| 20260506211429 | 60 | 286 | 6.0 | 15.0 | 0.00 | 0.02 | 0.02 | 7 | 1008.9 |
| 20260506210929 | 60 | 260 | 4.0 | 10.0 | 0.00 | 0.03 | 0.02 | 7 | 1008.7 |
| 20260506210429 | 60 | 240 | 4.0 | 9.0 | 0.00 | 0.03 | 0.02 | 7 | 1008.7 |
| 20260506205929 | 60 | 270 | 4.0 | 11.0 | 0.01 | 0.02 | 0.02 | 7 | 1008.9 |
| 20260506205429 | 60 | 256 | 4.0 | 8.0 | 0.02 | 0.04 | 0.02 | 7 | 1008.8 |
| 20260506204929 | 59 | 352 | 5.0 | 10.0 | 0.02 | 0.04 | 0.02 | 7 | 1008.9 |
| 20260506204429 | 59 | 319 | 4.0 | 5.0 | 0.02 | 0.04 | 0.02 | 7 | 1009.0 |
| 20260506203929 | 59 | 244 | 4.0 | 9.0 | 0.02 | 0.04 | 0.02 | 7 | 1009.1 |
| 20260506203429 | 58 | 250 | 3.0 | 8.0 | 0.02 | 0.04 | 0.02 | 8 | 1009.0 |
| 20260506202929 | 58 | 239 | 5.0 | 13.0 | 0.02 | 0.04 | 0.02 | 8 | 1009.2 |
| 20260506202429 | 58 | 158 | 4.0 | 10.0 | 0.02 | 0.04 | 0.02 | 8 | 1009.3 |
| 20260506201929 | 58 | 202 | 4.0 | 10.0 | 0.02 | 0.04 | 0.02 | 8 | 1009.5 |
| 20260506201429 | 58 | 192 | 3.0 | 8.0 | 0.02 | 0.04 | 0.02 | 8 | 1009.5 |
| 20260506200929 | 58 | 254 | 4.0 | 13.0 | 0.02 | 0.03 | 0.02 | 8 | 1009.8 |
| 20260506200429 | 59 | 257 | 3.0 | 13.0 | 0.02 | 0.03 | 0.02 | 8 | 1009.6 |
| 20260506195929 | 60 | 169 | 8.0 | 14.0 | 0.01 | 0.01 | 0.01 | 7 | 1009.6 |